Anzahl Datensätze: 288
min. Temperatur: 14.7 °C
max. Temperatur: 23.0 °C
max. Windgeschwindigkeit: 24.1 km/h
Niederschlagsumme: 6.0 mm
| Datum |
Zeit |
Temp °C |
Feuchte % |
Taupunkt °C |
Luftdruck hPa |
Wind km/h |
Windrichtung |
Strahlung w/m² |
Niederschlag mm |
|---|---|---|---|---|---|---|---|---|---|
| 15.06.2020 | 00:04 | 15.4 | 97 | 14.9 | 1015.8 | 3.2 | SW | 0 | 6.0 |
| 15.06.2020 | 00:08 | 15.4 | 97 | 14.9 | 1015.7 | 3.2 | WSW | 0 | 0.0 |
| 15.06.2020 | 00:14 | 15.4 | 97 | 14.9 | 1015.7 | 3.2 | SSW | 0 | 0.0 |
| 15.06.2020 | 00:18 | 15.4 | 97 | 14.9 | 1015.7 | 1.4 | SW | 0 | 0.2 |
| 15.06.2020 | 00:24 | 15.3 | 97 | 14.8 | 1015.7 | 3.2 | SSW | 0 | 0.2 |
| 15.06.2020 | 00:28 | 15.3 | 97 | 14.8 | 1015.7 | 3.2 | SSW | 0 | 0.2 |
| 15.06.2020 | 00:34 | 15.3 | 97 | 14.8 | 1015.7 | 3.2 | SSW | 0 | 0.2 |
| 15.06.2020 | 00:38 | 15.3 | 97 | 14.8 | 1015.6 | 3.2 | SW | 0 | 0.2 |
| 15.06.2020 | 00:44 | 15.3 | 97 | 14.8 | 1015.6 | 3.2 | SW | 0 | 0.2 |
| 15.06.2020 | 00:48 | 15.3 | 97 | 14.8 | 1015.6 | 3.2 | SSW | 0 | 0.2 |
| 15.06.2020 | 00:54 | 15.3 | 97 | 14.8 | 1015.6 | 4.7 | SSW | 0 | 0.4 |
| 15.06.2020 | 00:58 | 15.3 | 97 | 14.8 | 1015.6 | 4.7 | SW | 0 | 0.4 |
| 15.06.2020 | 01:04 | 15.2 | 97 | 14.7 | 1015.7 | 3.2 | SW | 0 | 0.4 |
| 15.06.2020 | 01:08 | 15.2 | 97 | 14.7 | 1015.7 | 1.4 | SW | 0 | 0.4 |
| 15.06.2020 | 01:14 | 15.2 | 97 | 14.7 | 1015.8 | 1.4 | SSW | 0 | 0.4 |
| 15.06.2020 | 01:18 | 15.2 | 97 | 14.7 | 1015.8 | 3.2 | SSW | 0 | 0.4 |
| 15.06.2020 | 01:24 | 15.2 | 97 | 14.7 | 1015.8 | 3.2 | WSW | 0 | 0.4 |
| 15.06.2020 | 01:28 | 15.1 | 97 | 14.6 | 1015.8 | 3.2 | SW | 0 | 0.4 |
| 15.06.2020 | 01:34 | 15.1 | 97 | 14.6 | 1015.8 | 3.2 | SW | 0 | 0.4 |
| 15.06.2020 | 01:38 | 15.1 | 97 | 14.6 | 1015.8 | 1.4 | SSW | 0 | 0.4 |
| 15.06.2020 | 01:44 | 15.1 | 97 | 14.6 | 1015.8 | 1.4 | SSW | 0 | 0.4 |
| 15.06.2020 | 01:48 | 15.1 | 97 | 14.6 | 1015.8 | 3.2 | SW | 0 | 0.4 |
| 15.06.2020 | 01:54 | 15.1 | 97 | 14.6 | 1015.9 | 4.7 | SW | 0 | 0.4 |
| 15.06.2020 | 01:58 | 15.1 | 97 | 14.6 | 1015.9 | 4.7 | SSW | 0 | 0.4 |
| 15.06.2020 | 02:04 | 15.1 | 97 | 14.6 | 1015.9 | 4.7 | WSW | 0 | 0.4 |
| 15.06.2020 | 02:08 | 15.1 | 97 | 14.6 | 1015.9 | 3.2 | SW | 0 | 0.4 |
| 15.06.2020 | 02:14 | 15.0 | 97 | 14.5 | 1016.1 | 1.4 | SW | 0 | 0.4 |
| 15.06.2020 | 02:18 | 15.0 | 97 | 14.5 | 1016.0 | 1.4 | SW | 0 | 0.4 |
| 15.06.2020 | 02:24 | 14.9 | 97 | 14.4 | 1016.0 | 1.4 | SW | 0 | 0.6 |
| 15.06.2020 | 02:28 | 14.9 | 97 | 14.4 | 1016.0 | 1.4 | SW | 0 | 0.6 |
| 15.06.2020 | 02:34 | 14.9 | 97 | 14.4 | 1016.0 | 0.0 | SW | 0 | 0.6 |
| 15.06.2020 | 02:38 | 14.9 | 97 | 14.4 | 1016.0 | 0.0 | SW | 0 | 0.6 |
| 15.06.2020 | 02:44 | 14.9 | 97 | 14.4 | 1016.1 | 1.4 | SW | 0 | 0.6 |
| 15.06.2020 | 02:48 | 14.9 | 97 | 14.4 | 1016.1 | 1.4 | SW | 0 | 0.6 |
| 15.06.2020 | 02:54 | 14.9 | 97 | 14.4 | 1016.2 | 1.4 | SSW | 0 | 0.6 |
| 15.06.2020 | 02:58 | 14.9 | 97 | 14.4 | 1016.2 | 1.4 | SW | 0 | 0.6 |
| 15.06.2020 | 03:04 | 14.8 | 97 | 14.3 | 1016.1 | 1.4 | SW | 0 | 0.6 |
| 15.06.2020 | 03:08 | 14.9 | 97 | 14.4 | 1016.1 | 1.4 | SW | 0 | 0.6 |
| 15.06.2020 | 03:14 | 14.9 | 97 | 14.4 | 1016.1 | 0.0 | WSW | 0 | 0.6 |
| 15.06.2020 | 03:18 | 14.9 | 97 | 14.4 | 1016.0 | 1.4 | SW | 0 | 0.6 |
| 15.06.2020 | 03:24 | 14.9 | 97 | 14.4 | 1016.0 | 1.4 | WSW | 0 | 0.6 |
| 15.06.2020 | 03:28 | 14.9 | 97 | 14.4 | 1016.0 | 1.4 | SW | 0 | 0.6 |
| 15.06.2020 | 03:34 | 14.9 | 97 | 14.4 | 1016.0 | 1.4 | SW | 0 | 0.6 |
| 15.06.2020 | 03:38 | 14.9 | 97 | 14.4 | 1015.9 | 1.4 | SW | 0 | 0.6 |
| 15.06.2020 | 03:44 | 14.9 | 97 | 14.4 | 1015.9 | 1.4 | W | 0 | 0.6 |
| 15.06.2020 | 03:48 | 14.8 | 97 | 14.3 | 1015.9 | 1.4 | WSW | 0 | 0.6 |
| 15.06.2020 | 03:54 | 14.8 | 97 | 14.3 | 1015.8 | 1.4 | WSW | 0 | 0.6 |
| 15.06.2020 | 03:58 | 14.8 | 97 | 14.3 | 1015.8 | 3.2 | SW | 0 | 0.6 |
| 15.06.2020 | 04:04 | 14.8 | 97 | 14.3 | 1015.8 | 1.4 | SW | 0 | 0.6 |
| 15.06.2020 | 04:08 | 14.8 | 97 | 14.3 | 1015.8 | 3.2 | SSW | 0 | 0.6 |
| 15.06.2020 | 04:14 | 14.7 | 97 | 14.2 | 1015.8 | 3.2 | SW | 0 | 0.6 |
| 15.06.2020 | 04:18 | 14.7 | 97 | 14.2 | 1015.8 | 1.4 | SSW | 0 | 0.6 |
| 15.06.2020 | 04:24 | 14.7 | 97 | 14.2 | 1015.8 | 1.4 | SW | 0 | 0.6 |
| 15.06.2020 | 04:28 | 14.7 | 97 | 14.2 | 1015.8 | 3.2 | SW | 0 | 0.6 |
| 15.06.2020 | 04:34 | 14.7 | 97 | 14.2 | 1015.8 | 1.4 | SSW | 0 | 0.6 |
| 15.06.2020 | 04:38 | 14.7 | 97 | 14.2 | 1015.7 | 3.2 | SSW | 0 | 0.6 |
| 15.06.2020 | 04:44 | 14.7 | 97 | 14.2 | 1015.7 | 1.4 | SW | 0 | 0.6 |
| 15.06.2020 | 04:48 | 14.7 | 97 | 14.2 | 1015.8 | 1.4 | SSW | 0 | 0.6 |
| 15.06.2020 | 04:54 | 14.7 | 97 | 14.2 | 1015.9 | 1.4 | SSW | 0 | 0.6 |
| 15.06.2020 | 04:58 | 14.7 | 97 | 14.2 | 1015.9 | 3.2 | SW | 0 | 0.6 |
| 15.06.2020 | 05:04 | 14.7 | 97 | 14.2 | 1016.0 | 1.4 | WSW | 0 | 0.6 |
| 15.06.2020 | 05:08 | 14.7 | 97 | 14.2 | 1016.0 | 1.4 | SW | 0 | 0.6 |
| 15.06.2020 | 05:14 | 14.7 | 97 | 14.2 | 1015.9 | 1.4 | SSW | 0 | 0.6 |
| 15.06.2020 | 05:18 | 14.7 | 97 | 14.2 | 1015.9 | 1.4 | WSW | 0 | 0.6 |
| 15.06.2020 | 05:24 | 14.7 | 97 | 14.2 | 1016.0 | 1.4 | SSW | 0 | 0.6 |
| 15.06.2020 | 05:28 | 14.7 | 97 | 14.2 | 1015.9 | 1.4 | SW | 0 | 0.6 |
| 15.06.2020 | 05:34 | 14.7 | 98 | 14.4 | 1015.9 | 1.4 | SW | 0 | 0.6 |
| 15.06.2020 | 05:38 | 14.7 | 98 | 14.4 | 1015.9 | 1.4 | SSW | 0 | 0.6 |
| 15.06.2020 | 05:44 | 14.7 | 98 | 14.4 | 1016.0 | 0.0 | SW | 5 | 0.6 |
| 15.06.2020 | 05:48 | 14.7 | 98 | 14.4 | 1016.0 | 0.0 | SW | 5 | 0.6 |
| 15.06.2020 | 05:54 | 14.7 | 98 | 14.4 | 1016.0 | 1.4 | SW | 7 | 0.6 |
| 15.06.2020 | 05:58 | 14.7 | 98 | 14.4 | 1016.0 | 1.4 | SSW | 7 | 0.6 |
| 15.06.2020 | 06:04 | 14.7 | 98 | 14.4 | 1016.0 | 0.0 | SSW | 9 | 0.6 |
| 15.06.2020 | 06:08 | 14.7 | 98 | 14.4 | 1016.0 | 0.0 | SW | 9 | 0.6 |
| 15.06.2020 | 06:14 | 14.7 | 98 | 14.4 | 1016.0 | 1.4 | SSW | 9 | 0.6 |
| 15.06.2020 | 06:18 | 14.7 | 98 | 14.4 | 1016.0 | 3.2 | SSW | 11 | 0.6 |
| 15.06.2020 | 06:24 | 14.7 | 98 | 14.4 | 1016.1 | 3.2 | S | 11 | 0.6 |
| 15.06.2020 | 06:28 | 14.7 | 98 | 14.4 | 1016.0 | 1.4 | S | 12 | 0.6 |
| 15.06.2020 | 06:34 | 14.7 | 98 | 14.4 | 1016.0 | 1.4 | S | 16 | 0.6 |
| 15.06.2020 | 06:38 | 14.7 | 98 | 14.4 | 1016.0 | 1.4 | SO | 19 | 0.6 |
| 15.06.2020 | 06:44 | 14.7 | 98 | 14.4 | 1016.1 | 1.4 | SO | 23 | 0.6 |
| 15.06.2020 | 06:48 | 14.8 | 98 | 14.5 | 1016.1 | 0.0 | S | 25 | 0.6 |
| 15.06.2020 | 06:54 | 14.8 | 98 | 14.5 | 1016.1 | 1.4 | SSW | 26 | 0.6 |
| 15.06.2020 | 06:58 | 14.8 | 98 | 14.5 | 1016.1 | 1.4 | SW | 30 | 0.6 |
| 15.06.2020 | 07:04 | 14.8 | 98 | 14.5 | 1016.2 | 1.4 | SSW | 37 | 0.6 |
| 15.06.2020 | 07:08 | 14.8 | 98 | 14.5 | 1016.2 | 1.4 | SSW | 40 | 0.6 |
| 15.06.2020 | 07:14 | 14.9 | 98 | 14.6 | 1016.2 | 1.4 | S | 42 | 0.6 |
| 15.06.2020 | 07:18 | 14.8 | 98 | 14.5 | 1016.2 | 1.4 | SW | 40 | 0.6 |
| 15.06.2020 | 07:24 | 14.8 | 98 | 14.5 | 1016.2 | 1.4 | SO | 42 | 0.6 |
| 15.06.2020 | 07:28 | 14.9 | 98 | 14.6 | 1016.2 | 1.4 | SSW | 46 | 0.6 |
| 15.06.2020 | 07:34 | 14.9 | 98 | 14.6 | 1016.1 | 3.2 | WNW | 51 | 0.6 |
| 15.06.2020 | 07:38 | 14.9 | 98 | 14.6 | 1016.1 | 3.2 | WNW | 56 | 0.6 |
| 15.06.2020 | 07:44 | 14.9 | 98 | 14.6 | 1016.0 | 3.2 | WNW | 62 | 0.6 |
| 15.06.2020 | 07:48 | 14.9 | 98 | 14.6 | 1016.1 | 3.2 | WNW | 62 | 0.6 |
| 15.06.2020 | 07:54 | 15.0 | 98 | 14.7 | 1016.2 | 3.2 | WNW | 58 | 0.6 |
| 15.06.2020 | 07:58 | 15.0 | 98 | 14.7 | 1016.2 | 3.2 | SW | 60 | 0.6 |
| 15.06.2020 | 08:04 | 15.1 | 98 | 14.8 | 1016.2 | 3.2 | SSW | 69 | 0.6 |
| 15.06.2020 | 08:08 | 15.1 | 98 | 14.8 | 1016.2 | 3.2 | SSW | 72 | 0.6 |
| 15.06.2020 | 08:14 | 15.1 | 97 | 14.6 | 1016.3 | 1.4 | SSW | 86 | 0.6 |
| 15.06.2020 | 08:18 | 15.2 | 97 | 14.7 | 1016.3 | 1.4 | SW | 91 | 0.6 |
| 15.06.2020 | 08:24 | 15.2 | 97 | 14.7 | 1016.4 | 1.4 | SSW | 90 | 0.6 |
| 15.06.2020 | 08:28 | 15.3 | 97 | 14.8 | 1016.4 | 1.4 | S | 90 | 0.6 |
| 15.06.2020 | 08:34 | 15.3 | 97 | 14.8 | 1016.5 | 3.2 | SW | 113 | 0.6 |
| 15.06.2020 | 08:38 | 15.4 | 97 | 14.9 | 1016.4 | 3.2 | S | 128 | 0.6 |
| 15.06.2020 | 08:44 | 15.6 | 97 | 15.1 | 1016.5 | 3.2 | S | 142 | 0.6 |
| 15.06.2020 | 08:48 | 15.7 | 97 | 15.2 | 1016.5 | 3.2 | SSW | 148 | 0.6 |
| 15.06.2020 | 08:54 | 15.8 | 97 | 15.3 | 1016.6 | 3.2 | SW | 162 | 0.6 |
| 15.06.2020 | 08:58 | 15.8 | 97 | 15.3 | 1016.5 | 3.2 | WSW | 176 | 0.6 |
| 15.06.2020 | 09:04 | 15.8 | 97 | 15.3 | 1016.5 | 3.2 | WSW | 192 | 0.6 |
| 15.06.2020 | 09:08 | 16.0 | 96 | 15.4 | 1016.5 | 1.4 | SW | 209 | 0.6 |
| 15.06.2020 | 09:14 | 16.1 | 96 | 15.5 | 1016.5 | 1.4 | SW | 193 | 0.6 |
| 15.06.2020 | 09:18 | 16.2 | 96 | 15.6 | 1016.6 | 1.4 | WSW | 185 | 0.6 |
| 15.06.2020 | 09:24 | 16.4 | 96 | 15.8 | 1016.6 | 1.4 | SSW | 195 | 0.6 |
| 15.06.2020 | 09:28 | 16.4 | 95 | 15.6 | 1016.6 | 3.2 | SSW | 211 | 0.6 |
| 15.06.2020 | 09:34 | 16.4 | 95 | 15.6 | 1016.6 | 3.2 | SSW | 216 | 0.6 |
| 15.06.2020 | 09:38 | 16.6 | 95 | 15.8 | 1016.6 | 3.2 | SSW | 223 | 0.6 |
| 15.06.2020 | 09:44 | 16.8 | 95 | 16.0 | 1016.6 | 1.4 | SW | 232 | 0.6 |
| 15.06.2020 | 09:48 | 16.9 | 94 | 15.9 | 1016.6 | 1.4 | SW | 255 | 0.6 |
| 15.06.2020 | 09:54 | 17.2 | 94 | 16.2 | 1016.6 | 1.4 | SSW | 246 | 0.6 |
| 15.06.2020 | 09:58 | 17.3 | 93 | 16.2 | 1016.7 | 0.0 | SSW | 267 | 0.6 |
| 15.06.2020 | 10:04 | 17.6 | 93 | 16.5 | 1016.7 | 0.0 | SW | 301 | 0.6 |
| 15.06.2020 | 10:08 | 17.9 | 93 | 16.8 | 1016.7 | 1.4 | S | 318 | 0.6 |
| 15.06.2020 | 10:14 | 18.1 | 92 | 16.8 | 1016.7 | 1.4 | S | 371 | 0.6 |
| 15.06.2020 | 10:18 | 18.3 | 92 | 17.0 | 1016.7 | 1.4 | S | 438 | 0.6 |
| 15.06.2020 | 10:24 | 18.7 | 91 | 17.2 | 1016.7 | 1.4 | SO | 446 | 0.6 |
| 15.06.2020 | 10:28 | 18.9 | 90 | 17.2 | 1016.7 | 1.4 | SSW | 468 | 0.6 |
| 15.06.2020 | 10:34 | 19.1 | 88 | 17.1 | 1016.7 | 3.2 | SSW | 387 | 0.6 |
| 15.06.2020 | 10:38 | 19.0 | 87 | 16.8 | 1016.7 | 4.7 | SSW | 445 | 0.6 |
| 15.06.2020 | 10:44 | 19.2 | 88 | 17.2 | 1016.7 | 3.2 | SSO | 715 | 0.6 |
| 15.06.2020 | 10:48 | 19.4 | 86 | 17.0 | 1016.6 | 3.2 | SSW | 800 | 0.6 |
| 15.06.2020 | 10:54 | 19.4 | 85 | 16.8 | 1016.6 | 3.2 | SSW | 598 | 0.6 |
| 15.06.2020 | 10:58 | 19.6 | 83 | 16.6 | 1016.6 | 3.2 | SSW | 461 | 0.6 |
| 15.06.2020 | 11:04 | 19.7 | 83 | 16.7 | 1016.6 | 3.2 | S | 575 | 0.6 |
| 15.06.2020 | 11:08 | 19.8 | 83 | 16.8 | 1016.6 | 3.2 | S | 782 | 0.6 |
| 15.06.2020 | 11:14 | 20.3 | 81 | 16.9 | 1016.5 | 1.4 | SSW | 596 | 0.6 |
| 15.06.2020 | 11:18 | 20.3 | 81 | 16.9 | 1016.5 | 1.4 | SSW | 541 | 0.6 |
| 15.06.2020 | 11:24 | 20.4 | 77 | 16.2 | 1016.5 | 3.2 | S | 705 | 0.6 |
| 15.06.2020 | 11:28 | 20.8 | 78 | 16.8 | 1016.5 | 1.4 | S | 807 | 0.6 |
| 15.06.2020 | 11:34 | 20.8 | 77 | 16.6 | 1016.5 | 1.4 | WSW | 461 | 0.6 |
| 15.06.2020 | 11:38 | 20.7 | 79 | 16.9 | 1016.5 | 1.4 | SW | 714 | 0.6 |
| 15.06.2020 | 11:44 | 20.7 | 76 | 16.3 | 1016.5 | 1.4 | SW | 758 | 0.6 |
| 15.06.2020 | 11:48 | 20.8 | 78 | 16.8 | 1016.4 | 1.4 | SSW | 765 | 0.6 |
| 15.06.2020 | 11:54 | 21.2 | 76 | 16.8 | 1016.4 | 3.2 | SSW | 875 | 0.6 |
| 15.06.2020 | 11:58 | 21.5 | 74 | 16.7 | 1016.4 | 4.7 | S | 694 | 0.6 |
| 15.06.2020 | 12:04 | 21.4 | 73 | 16.4 | 1016.4 | 3.2 | SW | 496 | 0.6 |
| 15.06.2020 | 12:08 | 20.9 | 72 | 15.7 | 1016.4 | 1.4 | SW | 371 | 0.6 |
| 15.06.2020 | 12:14 | 21.2 | 71 | 15.7 | 1016.3 | 1.4 | SSW | 932 | 0.6 |
| 15.06.2020 | 12:18 | 21.9 | 73 | 16.8 | 1016.3 | 1.4 | SW | 336 | 0.6 |
| 15.06.2020 | 12:24 | 21.3 | 70 | 15.6 | 1016.4 | 1.4 | SW | 378 | 0.6 |
| 15.06.2020 | 12:28 | 21.3 | 68 | 15.2 | 1016.3 | 1.4 | WSW | 436 | 0.6 |
| 15.06.2020 | 12:34 | 21.7 | 70 | 16.0 | 1016.3 | 4.7 | SSW | 926 | 0.6 |
| 15.06.2020 | 12:38 | 22.1 | 67 | 15.7 | 1016.3 | 4.7 | SW | 889 | 0.6 |
| 15.06.2020 | 12:44 | 21.8 | 67 | 15.4 | 1016.3 | 6.5 | SW | 657 | 0.6 |
| 15.06.2020 | 12:48 | 21.8 | 69 | 15.9 | 1016.2 | 6.5 | SW | 285 | 0.6 |
| 15.06.2020 | 12:54 | 21.3 | 70 | 15.6 | 1016.2 | 3.2 | WSW | 283 | 0.6 |
| 15.06.2020 | 12:58 | 21.2 | 71 | 15.7 | 1016.2 | 3.2 | WNW | 308 | 0.6 |
| 15.06.2020 | 13:04 | 21.2 | 69 | 15.3 | 1016.2 | 3.2 | W | 362 | 0.6 |
| 15.06.2020 | 13:08 | 21.3 | 70 | 15.6 | 1016.2 | 3.2 | WSW | 425 | 0.6 |
| 15.06.2020 | 13:14 | 21.4 | 66 | 14.8 | 1016.2 | 3.2 | WSW | 455 | 0.6 |
| 15.06.2020 | 13:18 | 21.6 | 66 | 15.0 | 1016.1 | 1.4 | WNW | 422 | 0.6 |
| 15.06.2020 | 13:24 | 21.9 | 66 | 15.3 | 1016.2 | 3.2 | WSW | 471 | 0.6 |
| 15.06.2020 | 13:28 | 21.9 | 65 | 15.0 | 1016.1 | 4.7 | NW | 503 | 0.6 |
| 15.06.2020 | 13:34 | 22.0 | 62 | 14.4 | 1016.1 | 7.9 | W | 417 | 0.6 |
| 15.06.2020 | 13:38 | 21.9 | 63 | 14.5 | 1016.1 | 7.9 | NW | 369 | 0.6 |
| 15.06.2020 | 13:44 | 22.0 | 62 | 14.4 | 1016.1 | 4.7 | W | 425 | 0.6 |
| 15.06.2020 | 13:48 | 22.1 | 63 | 14.7 | 1015.9 | 3.2 | WNW | 471 | 0.6 |
| 15.06.2020 | 13:54 | 22.3 | 61 | 14.4 | 1015.9 | 1.4 | WSW | 499 | 0.6 |
| 15.06.2020 | 13:58 | 22.4 | 62 | 14.8 | 1015.9 | 3.2 | NW | 473 | 0.6 |
| 15.06.2020 | 14:04 | 22.4 | 61 | 14.5 | 1015.8 | 6.5 | N | 925 | 0.6 |
| 15.06.2020 | 14:08 | 22.7 | 59 | 14.3 | 1015.8 | 7.9 | W | 473 | 0.6 |
| 15.06.2020 | 14:14 | 22.4 | 60 | 14.3 | 1015.7 | 7.9 | WSW | 355 | 0.6 |
| 15.06.2020 | 14:18 | 22.2 | 60 | 14.1 | 1015.7 | 7.9 | W | 417 | 0.6 |
| 15.06.2020 | 14:24 | 22.2 | 62 | 14.6 | 1015.7 | 4.7 | SW | 315 | 0.6 |
| 15.06.2020 | 14:28 | 22.0 | 63 | 14.6 | 1015.7 | 3.2 | W | 320 | 0.6 |
| 15.06.2020 | 14:34 | 22.2 | 63 | 14.8 | 1015.7 | 1.4 | NW | 501 | 0.6 |
| 15.06.2020 | 14:38 | 22.6 | 59 | 14.2 | 1015.6 | 1.4 | W | 629 | 0.6 |
| 15.06.2020 | 14:44 | 23.0 | 61 | 15.1 | 1015.7 | 3.2 | W | 631 | 0.6 |
| 15.06.2020 | 14:48 | 22.9 | 59 | 14.5 | 1015.6 | 4.7 | W | 540 | 0.6 |
| 15.06.2020 | 14:54 | 22.7 | 59 | 14.3 | 1015.5 | 3.2 | WSW | 394 | 0.6 |
| 15.06.2020 | 14:58 | 22.7 | 61 | 14.8 | 1015.6 | 4.7 | SW | 383 | 0.6 |
| 15.06.2020 | 15:04 | 22.7 | 60 | 14.5 | 1015.5 | 3.2 | W | 401 | 0.6 |
| 15.06.2020 | 15:08 | 22.7 | 62 | 15.0 | 1015.5 | 3.2 | WSW | 376 | 0.6 |
| 15.06.2020 | 15:14 | 22.5 | 62 | 14.9 | 1015.5 | 3.2 | SW | 292 | 0.6 |
| 15.06.2020 | 15:18 | 22.3 | 61 | 14.4 | 1015.6 | 3.2 | SW | 246 | 0.6 |
| 15.06.2020 | 15:24 | 22.1 | 62 | 14.5 | 1015.5 | 4.7 | W | 265 | 0.6 |
| 15.06.2020 | 15:28 | 22.2 | 64 | 15.1 | 1015.5 | 3.2 | W | 311 | 0.6 |
| 15.06.2020 | 15:34 | 22.5 | 62 | 14.9 | 1015.5 | 0.0 | NW | 396 | 0.6 |
| 15.06.2020 | 15:38 | 22.5 | 62 | 14.9 | 1015.4 | 0.0 | NW | 371 | 0.6 |
| 15.06.2020 | 15:44 | 22.6 | 62 | 14.9 | 1015.6 | 3.2 | N | 262 | 0.6 |
| 15.06.2020 | 15:48 | 22.2 | 62 | 14.6 | 1015.6 | 6.5 | N | 211 | 0.6 |
| 15.06.2020 | 15:54 | 21.8 | 67 | 15.4 | 1015.6 | 6.5 | NNO | 207 | 0.6 |
| 15.06.2020 | 15:58 | 21.7 | 67 | 15.3 | 1015.5 | 4.7 | N | 207 | 0.6 |
| 15.06.2020 | 16:04 | 21.6 | 67 | 15.2 | 1015.6 | 4.7 | NNO | 258 | 0.6 |
| 15.06.2020 | 16:08 | 21.7 | 67 | 15.3 | 1015.6 | 4.7 | NNO | 318 | 0.6 |
| 15.06.2020 | 16:14 | 21.8 | 67 | 15.4 | 1015.6 | 3.2 | NO | 301 | 0.6 |
| 15.06.2020 | 16:18 | 21.8 | 68 | 15.6 | 1015.5 | 3.2 | NNO | 369 | 0.6 |
| 15.06.2020 | 16:24 | 22.0 | 67 | 15.6 | 1015.5 | 4.7 | NNO | 396 | 0.6 |
| 15.06.2020 | 16:28 | 21.9 | 66 | 15.3 | 1015.5 | 4.7 | NO | 429 | 0.6 |
| 15.06.2020 | 16:34 | 22.1 | 67 | 15.7 | 1015.5 | 4.7 | ONO | 390 | 0.6 |
| 15.06.2020 | 16:38 | 22.0 | 65 | 15.1 | 1015.5 | 3.2 | ONO | 468 | 0.6 |
| 15.06.2020 | 16:44 | 22.2 | 67 | 15.8 | 1015.5 | 3.2 | ONO | 364 | 0.6 |
| 15.06.2020 | 16:48 | 22.2 | 66 | 15.5 | 1015.5 | 3.2 | NO | 461 | 0.6 |
| 15.06.2020 | 16:54 | 22.4 | 66 | 15.7 | 1015.5 | 3.2 | NO | 410 | 0.6 |
| 15.06.2020 | 16:58 | 22.3 | 65 | 15.4 | 1015.4 | 3.2 | ONO | 346 | 0.6 |
| 15.06.2020 | 17:04 | 21.9 | 67 | 15.5 | 1015.4 | 3.2 | NO | 320 | 0.6 |
| 15.06.2020 | 17:08 | 21.9 | 66 | 15.3 | 1015.4 | 1.4 | NO | 301 | 0.6 |
| 15.06.2020 | 17:14 | 21.8 | 67 | 15.4 | 1015.5 | 1.4 | ONO | 297 | 0.6 |
| 15.06.2020 | 17:18 | 21.7 | 65 | 14.8 | 1015.5 | 0.0 | N | 316 | 0.6 |
| 15.06.2020 | 17:24 | 21.8 | 65 | 14.9 | 1015.5 | 0.0 | ONO | 313 | 0.6 |
| 15.06.2020 | 17:28 | 21.8 | 67 | 15.4 | 1015.4 | 0.0 | ONO | 320 | 0.6 |
| 15.06.2020 | 17:34 | 21.7 | 66 | 15.1 | 1015.4 | 0.0 | ONO | 316 | 0.6 |
| 15.06.2020 | 17:38 | 21.7 | 66 | 15.1 | 1015.4 | 0.0 | NO | 313 | 0.6 |
| 15.06.2020 | 17:44 | 21.8 | 66 | 15.2 | 1015.4 | 0.0 | ONO | 332 | 0.6 |
| 15.06.2020 | 17:48 | 21.9 | 67 | 15.5 | 1015.3 | 0.0 | NO | 343 | 0.6 |
| 15.06.2020 | 17:54 | 21.9 | 65 | 15.0 | 1015.3 | 0.0 | ONO | 295 | 0.6 |
| 15.06.2020 | 17:58 | 21.9 | 66 | 15.3 | 1015.3 | 1.4 | ONO | 276 | 0.6 |
| 15.06.2020 | 18:04 | 21.8 | 67 | 15.4 | 1015.3 | 1.4 | NO | 265 | 0.6 |
| 15.06.2020 | 18:08 | 21.9 | 65 | 15.0 | 1015.4 | 1.4 | NO | 265 | 0.6 |
| 15.06.2020 | 18:14 | 21.8 | 66 | 15.2 | 1015.4 | 1.4 | ONO | 257 | 0.6 |
| 15.06.2020 | 18:18 | 21.7 | 67 | 15.3 | 1015.4 | 1.4 | NO | 278 | 0.6 |
| 15.06.2020 | 18:24 | 21.8 | 66 | 15.2 | 1015.4 | 1.4 | ONO | 267 | 0.6 |
| 15.06.2020 | 18:28 | 21.8 | 65 | 14.9 | 1015.4 | 1.4 | O | 258 | 0.6 |
| 15.06.2020 | 18:34 | 21.7 | 67 | 15.3 | 1015.5 | 1.4 | O | 236 | 0.6 |
| 15.06.2020 | 18:38 | 21.6 | 67 | 15.2 | 1015.6 | 1.4 | O | 183 | 0.6 |
| 15.06.2020 | 18:44 | 21.5 | 67 | 15.1 | 1015.7 | 0.0 | NO | 105 | 0.6 |
| 15.06.2020 | 18:48 | 21.4 | 66 | 14.8 | 1015.6 | 1.4 | NO | 74 | 0.6 |
| 15.06.2020 | 18:54 | 21.2 | 65 | 14.4 | 1015.7 | 1.4 | NO | 42 | 0.6 |
| 15.06.2020 | 18:58 | 21.1 | 67 | 14.7 | 1015.7 | 1.4 | NO | 37 | 0.6 |
| 15.06.2020 | 19:04 | 20.9 | 69 | 15.0 | 1015.7 | 1.4 | NNO | 33 | 0.6 |
| 15.06.2020 | 19:08 | 20.8 | 69 | 14.9 | 1015.7 | 1.4 | NNO | 33 | 0.6 |
| 15.06.2020 | 19:14 | 20.7 | 70 | 15.0 | 1015.7 | 0.0 | NW | 26 | 0.6 |
| 15.06.2020 | 19:18 | 20.6 | 70 | 14.9 | 1015.8 | 0.0 | NNW | 25 | 0.6 |
| 15.06.2020 | 19:24 | 20.3 | 71 | 14.9 | 1015.9 | 1.4 | N | 19 | 0.6 |
| 15.06.2020 | 19:28 | 20.2 | 72 | 15.0 | 1015.9 | 1.4 | N | 21 | 0.6 |
| 15.06.2020 | 19:34 | 20.1 | 73 | 15.1 | 1015.9 | 1.4 | N | 26 | 0.6 |
| 15.06.2020 | 19:38 | 20.1 | 74 | 15.3 | 1015.9 | 0.0 | NNO | 28 | 0.6 |
| 15.06.2020 | 19:44 | 20.0 | 75 | 15.4 | 1016.0 | 0.0 | NNO | 28 | 0.6 |
| 15.06.2020 | 19:48 | 19.9 | 75 | 15.3 | 1016.0 | 0.0 | NNO | 30 | 0.6 |
| 15.06.2020 | 19:54 | 19.8 | 75 | 15.2 | 1016.0 | 1.4 | NNO | 28 | 0.6 |
| 15.06.2020 | 19:58 | 19.7 | 76 | 15.3 | 1016.0 | 1.4 | NO | 28 | 0.6 |
| 15.06.2020 | 20:04 | 19.6 | 77 | 15.5 | 1016.1 | 1.4 | NO | 25 | 0.6 |
| 15.06.2020 | 20:08 | 19.6 | 78 | 15.7 | 1016.1 | 0.0 | NO | 23 | 0.6 |
| 15.06.2020 | 20:14 | 19.4 | 78 | 15.5 | 1016.1 | 0.0 | NO | 21 | 0.6 |
| 15.06.2020 | 20:18 | 19.3 | 79 | 15.6 | 1016.0 | 0.0 | NO | 21 | 0.6 |
| 15.06.2020 | 20:24 | 19.3 | 79 | 15.6 | 1016.0 | 0.0 | NO | 21 | 0.6 |
| 15.06.2020 | 20:28 | 19.3 | 79 | 15.6 | 1016.0 | 0.0 | NO | 19 | 0.6 |
| 15.06.2020 | 20:34 | 19.2 | 80 | 15.7 | 1016.0 | 0.0 | NO | 18 | 0.6 |
| 15.06.2020 | 20:38 | 19.2 | 80 | 15.7 | 1016.1 | 0.0 | NO | 16 | 0.6 |
| 15.06.2020 | 20:44 | 19.1 | 80 | 15.6 | 1016.0 | 0.0 | NO | 16 | 0.6 |
| 15.06.2020 | 20:48 | 19.1 | 81 | 15.8 | 1016.0 | 0.0 | NO | 14 | 0.6 |
| 15.06.2020 | 20:54 | 18.9 | 82 | 15.8 | 1016.1 | 0.0 | NO | 14 | 0.6 |
| 15.06.2020 | 20:58 | 18.8 | 82 | 15.7 | 1016.1 | 0.0 | NO | 14 | 0.6 |
| 15.06.2020 | 21:04 | 18.7 | 83 | 15.8 | 1016.1 | 0.0 | NO | 11 | 0.6 |
| 15.06.2020 | 21:08 | 18.6 | 83 | 15.7 | 1016.1 | 0.0 | NO | 9 | 0.6 |
| 15.06.2020 | 21:14 | 18.6 | 84 | 15.8 | 1016.0 | 0.0 | NO | 7 | 0.6 |
| 15.06.2020 | 21:18 | 18.6 | 84 | 15.8 | 1016.1 | 0.0 | NO | 5 | 0.6 |
| 15.06.2020 | 21:24 | 18.6 | 84 | 15.8 | 1016.2 | 0.0 | NO | 0 | 0.6 |
| 15.06.2020 | 21:28 | 18.4 | 84 | 15.6 | 1016.2 | 0.0 | NO | 0 | 0.6 |
| 15.06.2020 | 21:34 | 18.3 | 85 | 15.7 | 1016.2 | 0.0 | NO | 0 | 0.6 |
| 15.06.2020 | 21:38 | 18.1 | 86 | 15.7 | 1016.3 | 0.0 | NO | 0 | 0.6 |
| 15.06.2020 | 21:44 | 18.1 | 86 | 15.7 | 1016.3 | 0.0 | NO | 0 | 0.6 |
| 15.06.2020 | 21:48 | 18.1 | 86 | 15.7 | 1016.3 | 0.0 | NO | 0 | 0.6 |
| 15.06.2020 | 21:54 | 18.1 | 86 | 15.7 | 1016.4 | 0.0 | NO | 0 | 0.6 |
| 15.06.2020 | 21:58 | 18.1 | 86 | 15.7 | 1016.4 | 0.0 | NO | 0 | 0.6 |
| 15.06.2020 | 22:04 | 17.9 | 87 | 15.7 | 1016.5 | 0.0 | NO | 0 | 0.6 |
| 15.06.2020 | 22:08 | 17.9 | 87 | 15.7 | 1016.5 | 0.0 | NO | 0 | 0.6 |
| 15.06.2020 | 22:14 | 17.8 | 87 | 15.6 | 1016.5 | 0.0 | NO | 0 | 0.6 |
| 15.06.2020 | 22:18 | 17.9 | 87 | 15.7 | 1016.5 | 0.0 | NO | 0 | 0.6 |
| 15.06.2020 | 22:24 | 17.9 | 87 | 15.7 | 1016.6 | 0.0 | NO | 0 | 0.6 |
| 15.06.2020 | 22:28 | 17.9 | 87 | 15.7 | 1016.5 | 0.0 | NO | 0 | 0.6 |
| 15.06.2020 | 22:34 | 17.9 | 87 | 15.7 | 1016.6 | 0.0 | NO | 0 | 0.6 |
| 15.06.2020 | 22:38 | 17.9 | 87 | 15.7 | 1016.5 | 0.0 | NO | 0 | 0.6 |
| 15.06.2020 | 22:44 | 17.9 | 87 | 15.7 | 1016.6 | 0.0 | NO | 0 | 0.6 |
| 15.06.2020 | 22:48 | 17.9 | 87 | 15.7 | 1016.6 | 0.0 | NO | 0 | 0.6 |
| 15.06.2020 | 22:54 | 17.9 | 87 | 15.7 | 1016.6 | 0.0 | NO | 0 | 0.6 |
| 15.06.2020 | 22:58 | 17.8 | 87 | 15.6 | 1016.6 | 0.0 | NO | 0 | 0.6 |
| 15.06.2020 | 23:04 | 17.8 | 87 | 15.6 | 1016.6 | 0.0 | NO | 0 | 0.6 |
| 15.06.2020 | 23:08 | 17.8 | 86 | 15.4 | 1016.7 | 0.0 | NO | 0 | 0.6 |
| 15.06.2020 | 23:14 | 17.7 | 86 | 15.3 | 1016.6 | 0.0 | NO | 0 | 0.6 |
| 15.06.2020 | 23:18 | 17.7 | 87 | 15.5 | 1016.7 | 0.0 | NO | 0 | 0.6 |
| 15.06.2020 | 23:24 | 17.6 | 87 | 15.4 | 1016.8 | 0.0 | NNO | 0 | 0.6 |
| 15.06.2020 | 23:28 | 17.4 | 87 | 15.2 | 1016.8 | 0.0 | NNO | 0 | 0.6 |
| 15.06.2020 | 23:34 | 17.4 | 87 | 15.2 | 1016.9 | 0.0 | NNO | 0 | 0.6 |
| 15.06.2020 | 23:38 | 17.4 | 88 | 15.4 | 1016.9 | 0.0 | NO | 0 | 0.6 |
| 15.06.2020 | 23:44 | 17.4 | 87 | 15.2 | 1016.8 | 1.4 | NO | 0 | 0.6 |
| 15.06.2020 | 23:48 | 17.4 | 87 | 15.2 | 1016.8 | 1.4 | ONO | 0 | 0.6 |
| 15.06.2020 | 23:54 | 17.4 | 86 | 15.0 | 1016.7 | 1.4 | ONO | 0 | 0.6 |
| 15.06.2020 | 23:58 | 17.4 | 86 | 15.0 | 1016.7 | 1.4 | NO | 0 | 0.6 |